TimeCDT,TemperatureF,Dew PointF,Humidity,Sea Level PressureIn,VisibilityMPH,Wind Direction,Wind SpeedMPH,Gust SpeedMPH,PrecipitationIn,Events,Conditions,WindDirDegrees,DateUTC
12:53 AM,79.0,71.1,77,30.08,10.0,SSW,4.6,-,N/A,,Partly Cloudy,210,2013-08-27 05:53:00
1:53 AM,78.1,70.0,76,30.06,10.0,SSW,3.5,-,N/A,,Clear,210,2013-08-27 06:53:00
2:53 AM,77.0,70.0,79,30.06,10.0,SW,4.6,-,N/A,,Clear,220,2013-08-27 07:53:00
3:53 AM,77.0,70.0,79,30.06,10.0,SW,3.5,-,N/A,,Clear,220,2013-08-27 08:53:00
4:53 AM,73.9,70.0,87,30.06,9.0,Calm,Calm,-,N/A,,Clear,0,2013-08-27 09:53:00
5:53 AM,71.1,69.1,93,30.06,7.0,Calm,Calm,-,N/A,,Clear,0,2013-08-27 10:53:00
6:53 AM,72.0,69.1,91,30.08,7.0,Calm,Calm,-,N/A,,Clear,0,2013-08-27 11:53:00
7:53 AM,75.0,70.0,84,30.08,7.0,Calm,Calm,-,N/A,,Clear,0,2013-08-27 12:53:00
8:53 AM,79.0,70.0,74,30.08,10.0,WSW,4.6,-,N/A,,Clear,250,2013-08-27 13:53:00
9:53 AM,84.0,71.1,65,30.08,10.0,Calm,Calm,-,N/A,,Clear,0,2013-08-27 14:53:00
10:53 AM,89.1,71.1,55,30.07,10.0,West,5.8,-,N/A,,Clear,280,2013-08-27 15:53:00
11:53 AM,90.0,70.0,52,30.06,10.0,West,6.9,-,N/A,,Clear,260,2013-08-27 16:53:00
12:53 PM,91.9,68.0,45,30.04,10.0,West,8.1,-,N/A,,Clear,270,2013-08-27 17:53:00
1:53 PM,93.0,64.9,39,30.02,10.0,WSW,4.6,-,N/A,,Partly Cloudy,240,2013-08-27 18:53:00
2:53 PM,93.0,66.0,41,30.00,10.0,SSW,4.6,-,N/A,,Partly Cloudy,210,2013-08-27 19:53:00
3:53 PM,93.0,68.0,44,29.98,10.0,SE,6.9,-,N/A,,Partly Cloudy,130,2013-08-27 20:53:00
4:53 PM,93.9,64.0,37,29.98,10.0,SSW,5.8,-,N/A,,Mostly Cloudy,210,2013-08-27 21:53:00
5:53 PM,91.9,64.9,41,29.97,10.0,WSW,3.5,-,N/A,,Overcast,250,2013-08-27 22:53:00
6:53 PM,89.1,64.0,43,29.97,10.0,WSW,4.6,-,N/A,,Partly Cloudy,250,2013-08-27 23:53:00
7:53 PM,86.0,64.0,48,29.98,10.0,Calm,Calm,-,N/A,,Clear,0,2013-08-28 00:53:00
8:53 PM,84.0,64.9,53,29.99,10.0,SW,3.5,-,N/A,,Clear,220,2013-08-28 01:53:00
9:53 PM,82.0,66.0,58,30.00,10.0,SW,3.5,-,N/A,,Clear,230,2013-08-28 02:53:00
10:53 PM,81.0,66.9,62,30.01,10.0,SW,4.6,-,N/A,,Clear,220,2013-08-28 03:53:00
11:53 PM,79.0,66.9,66,30.00,10.0,SW,3.5,-,N/A,,Clear,230,2013-08-28 04:53:00